{"data":{"norad_id":68483,"intl_designator":"2026-067BV","name":"LEMUR-2-CLARA","alt_names":[],"object_type":"PAYLOAD","status":"ACTIVE","operator":null,"country":"LUXE","launch_date":"2026-03-30","launch_site_code":"AFWTR","launch_vehicle":null,"mission":null,"orbit_class":"UNKNOWN","rcs_meters":null,"size_class":null,"mass_kg":null,"dimensions":null,"purposes":[],"wikipedia_slug":null,"has_3d_model":false,"image_url":null,"decayed_at":null,"tle_current":{"epoch":"2026-09-19T07:24:05.365152Z","epoch_age_seconds":171938,"freshness":"FRESH","line1":"1 68483U 26067BV  26262.30839543  .00002736  00000+0  26693-3 0  9999","line2":"2 68483  97.7746 219.5126 0003033  11.5425 348.5863 14.93261743 25772","mean_motion":14.93261743,"eccentricity":0.0003033,"inclination_deg":97.7746,"raan_deg":219.5126,"arg_perigee_deg":11.5425,"mean_anomaly_deg":348.5863,"bstar":0.00026693,"rev_number":2577,"period_min":96.433194431607,"perigee_km":585.66061036792,"apogee_km":589.88613159896,"semimajor_km":6965.9103709834,"source":"CELESTRAK","updated_at":"2026-09-20T09:00:24.249082Z"}}}